Springfield, OH

6:42 AM EST on February 27, 2017 (GMT -0500)
Springfield-Beckley Municipal

Weather History for KSGH - December, 2012

Change the Weather History Date:

Wednesday, December 12, 2012

  Actual Average (KFFO) Record (KFFO)
Temperature  
Mean Temperature 29 °F -  
Max Temperature 38 °F 40 °F 69 °F (2015)
Min Temperature 20 °F 26 °F 3 °F (2013)
Degree Days  
Heating Degree Days 36    
Moisture  
Dew Point 21 °F    
Average Humidity 75    
Maximum Humidity 89    
Minimum Humidity 53    
Precipitation  
Precipitation 0.00 in - - ()
Sea Level Pressure  
Sea Level Pressure 30.40 in    
Wind  
Wind Speed 5 mph (South)    
Max Wind Speed 8 mph    
Max Gust Speed -    
Visibility 6 miles    
Events      
Averages and records for this station are not official NWS values.
T = Trace of Precipitation, MM = Missing Value Source: NWS Daily Summary

Daily Weather History Graph

Daily Weather History Graph

Search for Another Location

Airport or City:

Trip Planner

Search our weather history database for the weather conditions in past years. The results will help you decide how hot, cold, wet, or windy it might be!

Date:

Astronomy

Dec. 12, 2012 Rise Set
Actual Time 7:47 AM EST 5:10 PM EST
Civil Twilight 7:17 AM EST 5:41 PM EST
Nautical Twilight 6:43 AM EST 6:15 PM EST
Astronomical Twilight 6:10 AM EST 6:48 PM EST
Moon 6:51 AM EST (12/12) 4:46 PM EST (12/12)
Length of Visible Light 10h 23m
Length of Day
9h 23m
Waning Crescent, 1% of the Moon is Illuminated
Dec 12
Waning Crescent
Dec 13
New
Dec 20
First Quarter
Dec 28
Full
Jan 4
Last Quarter

Hourly Weather History & Observations

Time (EST) Temp. Windchill Dew Point Humidity Pressure Visibility Wind Dir Wind Speed Gust Speed Precip Events Conditions
12:56 AM 25.2 °F 18.3 °F 19.0 °F 78% 30.29 in 6.0 mi SSW 5.8 mph - N/A   Haze
1:56 AM 24.1 °F 17.0 °F 19.0 °F 81% 30.31 in 6.0 mi SW 5.8 mph - N/A   Haze
2:56 AM 23.0 °F 17.0 °F 19.0 °F 85% 30.32 in 6.0 mi SW 4.6 mph - N/A   Clear
3:56 AM 22.1 °F 14.7 °F 18.1 °F 85% 30.33 in 6.0 mi SSW 5.8 mph - N/A   Clear
4:56 AM 23.0 °F 14.7 °F 19.0 °F 85% 30.35 in 6.0 mi SSW 6.9 mph - N/A   Clear
5:56 AM 21.0 °F 12.4 °F 18.1 °F 89% 30.37 in 6.0 mi SW 6.9 mph - N/A   Clear
6:56 AM 20.1 °F - 17.1 °F 88% 30.39 in 5.0 mi Calm Calm - N/A   Clear
7:56 AM 20.1 °F 15.2 °F 17.1 °F 88% 30.40 in 4.0 mi SSW 3.5 mph - N/A   Clear
8:56 AM 25.2 °F 19.5 °F 21.0 °F 84% 30.42 in 5.0 mi South 4.6 mph - N/A   Clear
9:56 AM 29.1 °F 25.4 °F 23.0 °F 78% 30.43 in 5.0 mi SSW 3.5 mph - N/A   Haze
10:56 AM 32.0 °F 27.5 °F 23.0 °F 69% 30.44 in 5.0 mi SSW 4.6 mph - N/A   Haze
11:56 AM 34.0 °F 31.0 °F 24.1 °F 67% 30.43 in 6.0 mi South 3.5 mph - N/A   Haze
12:56 PM 36.9 °F 30.7 °F 24.1 °F 60% 30.41 in 6.0 mi SSE 8.1 mph - N/A   Haze
1:56 PM 37.9 °F 34.4 °F 23.0 °F 55% 30.40 in 6.0 mi Variable 4.6 mph - N/A   Haze
2:56 PM 38.8 °F 36.5 °F 23.0 °F 53% 30.40 in 6.0 mi SE 3.5 mph - N/A   Haze
3:56 PM 37.9 °F 34.4 °F 24.1 °F 57% 30.39 in 6.0 mi SSE 4.6 mph - N/A   Haze
4:56 PM 34.0 °F 29.8 °F 24.1 °F 67% 30.40 in 6.0 mi SE 4.6 mph - N/A   Haze
5:56 PM 32.0 °F 26.4 °F 23.0 °F 69% 30.41 in 8.0 mi SSE 5.8 mph - N/A   Clear
6:56 PM 32.0 °F 26.4 °F 22.1 °F 67% 30.42 in 8.0 mi SE 5.8 mph - N/A   Clear
7:56 PM 31.1 °F 25.4 °F 22.1 °F 69% 30.43 in 7.0 mi SE 5.8 mph - N/A   Clear
8:56 PM 29.1 °F 23.0 °F 21.0 °F 72% 30.44 in 7.0 mi SE 5.8 mph - N/A   Clear
9:56 PM 25.2 °F 19.5 °F 20.1 °F 81% 30.44 in 7.0 mi SE 4.6 mph - N/A   Clear
10:56 PM 23.0 °F 17.0 °F 19.0 °F 85% 30.44 in 6.0 mi ESE 4.6 mph - N/A   Clear
11:56 PM 22.1 °F 15.9 °F 18.1 °F 85% 30.43 in 5.0 mi East 4.6 mph - N/A   Clear